Time,TemperatureF,DewpointF,PressureIn,WindDirection,WindDirectionDegrees,WindSpeedMPH,WindSpeedGustMPH,Humidity,HourlyPrecipIn,Conditions,Clouds,dailyrainin,SolarRadiationWatts/m^2,SoftwareType,DateUTC
2013-10-26 00:00:00,43.0,28.0,-100.00,NE,43,4.0,7.0,56,0.00,,,0.12,0.000000,,2013-10-26 07:00:00,
2013-10-26 00:42:00,43.0,28.0,-100.00,NE,43,4.0,7.0,56,0.00,,,0.12,0.000000,,2013-10-26 07:42:00,
2013-10-26 00:52:00,43.0,28.0,-100.00,NE,43,4.0,7.0,56,0.00,,,0.12,0.000000,,2013-10-26 07:52:00,
2013-10-26 01:00:00,43.0,29.0,-100.00,NE,47,4.0,6.0,58,0.00,,,0.11,0.000000,,2013-10-26 08:00:00,
2013-10-26 01:22:00,43.0,29.0,-100.00,NE,47,4.0,6.0,58,0.00,,,0.11,0.000000,,2013-10-26 08:22:00,
2013-10-26 01:32:00,43.0,29.0,-100.00,NE,47,4.0,6.0,58,0.00,,,0.11,0.000000,,2013-10-26 08:32:00,
2013-10-26 01:42:00,43.0,29.0,-100.00,NE,47,4.0,6.0,58,0.00,,,0.11,0.000000,,2013-10-26 08:42:00,
2013-10-26 01:52:00,43.0,29.0,-100.00,NE,47,4.0,6.0,58,0.00,,,0.11,0.000000,,2013-10-26 08:52:00,
2013-10-26 02:00:00,44.0,30.0,-100.00,NE,39,4.0,6.0,58,0.00,,,0.11,0.000000,,2013-10-26 09:00:00,
2013-10-26 02:43:00,44.0,30.0,-100.00,NE,39,4.0,6.0,58,0.00,,,0.11,0.000000,,2013-10-26 09:43:00,
2013-10-26 02:53:00,44.0,30.0,-100.00,NE,39,4.0,6.0,58,0.00,,,0.11,0.000000,,2013-10-26 09:53:00,
2013-10-26 03:00:00,43.0,27.0,-100.00,NE,47,5.0,7.0,52,0.00,,,0.11,0.000000,,2013-10-26 10:00:00,
2013-10-26 03:42:00,43.0,27.0,-100.00,NE,47,5.0,7.0,52,0.00,,,0.11,0.000000,,2013-10-26 10:42:00,
2013-10-26 03:53:00,43.0,27.0,-100.00,NE,47,5.0,7.0,52,0.00,,,0.11,0.000000,,2013-10-26 10:53:00,
2013-10-26 04:00:00,44.0,28.0,-100.00,NE,44,5.0,8.0,52,0.00,,,0.11,0.000000,,2013-10-26 11:00:00,
2013-10-26 04:42:00,44.0,28.0,-100.00,NE,44,5.0,8.0,52,0.00,,,0.11,0.000000,,2013-10-26 11:42:00,
2013-10-26 04:52:00,44.0,28.0,-100.00,NE,44,5.0,8.0,52,0.00,,,0.11,0.000000,,2013-10-26 11:52:00,
2013-10-26 05:00:00,41.0,27.0,-100.00,ENE,60,5.0,7.0,56,0.00,,,0.11,0.000000,,2013-10-26 12:00:00,
2013-10-26 05:42:00,41.0,27.0,-100.00,ENE,60,5.0,7.0,56,0.00,,,0.11,0.000000,,2013-10-26 12:42:00,
2013-10-26 05:52:00,41.0,27.0,-100.00,ENE,60,5.0,7.0,56,0.00,,,0.11,0.000000,,2013-10-26 12:52:00,
2013-10-26 06:00:00,41.0,27.0,-100.00,ENE,66,5.0,6.0,56,0.00,,,0.09,0.000000,,2013-10-26 13:00:00,
2013-10-26 06:22:00,41.0,27.0,-100.00,ENE,66,5.0,6.0,56,0.00,,,0.09,0.000000,,2013-10-26 13:22:00,
2013-10-26 06:32:00,41.0,27.0,-100.00,ENE,66,5.0,6.0,56,0.00,,,0.09,0.000000,,2013-10-26 13:32:00,
2013-10-26 06:42:00,41.0,27.0,-100.00,ENE,66,5.0,6.0,56,0.00,,,0.09,0.000000,,2013-10-26 13:42:00,
2013-10-26 06:52:00,41.0,27.0,-100.00,ENE,66,5.0,6.0,56,0.00,,,0.09,0.000000,,2013-10-26 13:52:00,
2013-10-26 07:00:00,40.0,28.0,-100.00,ENE,69,3.0,6.0,62,0.00,,,-99.99,0.000000,,2013-10-26 14:00:00,
2013-10-26 07:42:00,40.0,28.0,-100.00,ENE,69,3.0,6.0,62,0.00,,,-99.99,0.000000,,2013-10-26 14:42:00,
2013-10-26 07:52:00,40.0,28.0,-100.00,ENE,69,3.0,6.0,62,0.00,,,-99.99,0.000000,,2013-10-26 14:52:00,
2013-10-26 08:00:00,45.0,30.0,-100.00,NE,49,2.0,4.0,56,0.00,,,0.00,12.000000,,2013-10-26 15:00:00,
2013-10-26 08:44:00,45.0,30.0,-100.00,NE,49,2.0,4.0,56,0.00,,,0.00,12.000000,,2013-10-26 15:44:00,
2013-10-26 08:55:00,45.0,30.0,-100.00,NE,49,2.0,4.0,56,0.00,,,0.00,12.000000,,2013-10-26 15:55:00,
2013-10-26 09:00:00,58.0,25.0,-100.00,SSE,148,2.0,8.0,28,0.00,,,-99.99,173.000000,,2013-10-26 16:00:00,
2013-10-26 09:44:00,58.0,25.0,-100.00,SSE,148,2.0,8.0,28,0.00,,,-99.99,173.000000,,2013-10-26 16:44:00,
2013-10-26 09:53:00,58.0,25.0,-100.00,SSE,148,2.0,8.0,28,0.00,,,-99.99,173.000000,,2013-10-26 16:53:00,
2013-10-26 10:00:00,59.0,23.0,-100.00,NE,49,4.0,8.0,25,0.00,,,0.00,527.000000,,2013-10-26 17:00:00,
2013-10-26 10:43:00,59.0,23.0,-100.00,NE,49,4.0,8.0,25,0.00,,,0.00,527.000000,,2013-10-26 17:43:00,
2013-10-26 10:52:00,59.0,23.0,-100.00,NE,49,4.0,8.0,25,0.00,,,0.00,527.000000,,2013-10-26 17:52:00,
2013-10-26 11:00:00,61.0,23.0,-100.00,NNW,336,3.0,8.0,23,0.00,,,0.00,720.000000,,2013-10-26 18:00:00,
2013-10-26 11:42:00,61.0,23.0,-100.00,NNW,336,3.0,8.0,23,0.00,,,0.00,720.000000,,2013-10-26 18:42:00,
2013-10-26 11:52:00,61.0,23.0,-100.00,NNW,336,3.0,8.0,23,0.00,,,0.00,720.000000,,2013-10-26 18:52:00,
2013-10-26 12:00:00,65.0,25.0,-100.00,ENE,62,2.0,5.0,22,0.00,,,0.00,848.000000,,2013-10-26 19:00:00,
2013-10-26 12:42:00,65.0,25.0,-100.00,ENE,62,2.0,5.0,22,0.00,,,0.00,848.000000,,2013-10-26 19:42:00,
2013-10-26 12:52:00,65.0,25.0,-100.00,ENE,62,2.0,5.0,22,0.00,,,0.00,848.000000,,2013-10-26 19:52:00,
2013-10-26 13:43:00,66.0,27.0,-100.00,NNW,346,3.0,7.0,23,-99.99,,,0.00,904.000000,,2013-10-26 20:43:00,
2013-10-26 14:00:00,66.0,24.0,-100.00,North,351,3.0,9.0,20,-99.99,,,0.00,883.000000,,2013-10-26 21:00:00,
2013-10-26 14:43:00,66.0,24.0,-100.00,North,351,3.0,9.0,20,-99.99,,,0.00,883.000000,,2013-10-26 21:43:00,
2013-10-26 14:54:00,66.0,24.0,-100.00,North,351,3.0,9.0,20,-99.99,,,0.00,883.000000,,2013-10-26 21:54:00,
2013-10-26 15:00:00,64.0,23.0,-100.00,East,85,3.0,9.0,21,0.00,,,0.00,782.000000,,2013-10-26 22:00:00,
2013-10-26 15:44:00,64.0,23.0,-100.00,East,85,3.0,9.0,21,0.00,,,0.00,782.000000,,2013-10-26 22:44:00,
2013-10-26 15:54:00,64.0,23.0,-100.00,East,85,3.0,9.0,21,0.00,,,0.00,782.000000,,2013-10-26 22:54:00,
2013-10-26 16:00:00,62.0,24.0,-100.00,West,260,3.0,8.0,23,0.00,,,0.00,613.000000,,2013-10-26 23:00:00,
2013-10-26 16:42:00,62.0,24.0,-100.00,West,260,3.0,8.0,23,0.00,,,0.00,613.000000,,2013-10-26 23:42:00,
2013-10-26 16:52:00,62.0,24.0,-100.00,West,260,3.0,8.0,23,0.00,,,0.00,613.000000,,2013-10-26 23:52:00,
2013-10-26 17:00:00,61.0,20.0,-100.00,NNE,32,2.0,5.0,20,0.00,,,-99.99,394.000000,,2013-10-27 00:00:00,
2013-10-26 17:22:00,61.0,20.0,-100.00,NNE,32,2.0,5.0,20,0.00,,,-99.99,394.000000,,2013-10-27 00:22:00,
2013-10-26 17:32:00,61.0,20.0,-100.00,NNE,32,2.0,5.0,20,0.00,,,-99.99,394.000000,,2013-10-27 00:32:00,
2013-10-26 17:42:00,61.0,20.0,-100.00,NNE,32,2.0,5.0,20,0.00,,,-99.99,394.000000,,2013-10-27 00:42:00,
2013-10-26 17:52:00,61.0,20.0,-100.00,NNE,32,2.0,5.0,20,0.00,,,-99.99,394.000000,,2013-10-27 00:52:00,
2013-10-26 18:00:00,50.0,22.0,-100.00,ENE,68,1.0,4.0,33,0.00,,,0.00,140.000000,,2013-10-27 01:00:00,
2013-10-26 18:42:00,50.0,22.0,-100.00,ENE,68,1.0,4.0,33,0.00,,,0.00,140.000000,,2013-10-27 01:42:00,
2013-10-26 18:52:00,50.0,22.0,-100.00,ENE,68,1.0,4.0,33,0.00,,,0.00,140.000000,,2013-10-27 01:52:00,
2013-10-26 19:00:00,45.0,18.0,-100.00,ENE,77,2.0,3.0,34,0.00,,,0.00,2.000000,,2013-10-27 02:00:00,
2013-10-26 19:42:00,45.0,18.0,-100.00,ENE,77,2.0,3.0,34,0.00,,,0.00,2.000000,,2013-10-27 02:42:00,
2013-10-26 19:52:00,45.0,18.0,-100.00,ENE,77,2.0,3.0,34,0.00,,,0.00,2.000000,,2013-10-27 02:52:00,
2013-10-26 20:00:00,-999.0,-99.9,-100.00,East,98,2.0,3.0,-999,-99.99,,,-99.99,0.000000,,2013-10-27 03:00:00,
2013-10-26 20:45:00,45.0,18.0,-100.00,East,98,2.0,3.0,34,0.00,,,0.00,0.000000,,2013-10-27 03:45:00,
2013-10-26 20:55:00,45.0,18.0,-100.00,East,98,2.0,3.0,34,0.00,,,0.00,0.000000,,2013-10-27 03:55:00,
2013-10-26 21:00:00,44.0,22.0,-100.00,East,86,2.0,3.0,42,0.00,,,-99.99,0.000000,,2013-10-27 04:00:00,
2013-10-26 21:44:00,44.0,22.0,-100.00,East,86,2.0,3.0,42,0.00,,,-99.99,0.000000,,2013-10-27 04:44:00,
2013-10-26 21:54:00,44.0,22.0,-100.00,East,86,2.0,3.0,42,0.00,,,-99.99,0.000000,,2013-10-27 04:54:00,
2013-10-26 22:00:00,48.0,22.0,-100.00,West,260,2.0,6.0,35,0.00,,,0.00,0.000000,,2013-10-27 05:00:00,
2013-10-26 22:43:00,48.0,22.0,-100.00,West,260,2.0,6.0,35,0.00,,,0.00,0.000000,,2013-10-27 05:43:00,
2013-10-26 22:52:00,48.0,22.0,-100.00,West,260,2.0,6.0,35,0.00,,,0.00,0.000000,,2013-10-27 05:52:00,
2013-10-26 23:00:00,47.0,22.0,-100.00,ESE,123,2.0,5.0,37,0.00,,,0.00,0.000000,,2013-10-27 06:00:00,
2013-10-26 23:22:00,47.0,22.0,-100.00,ESE,123,2.0,5.0,37,0.00,,,0.00,0.000000,,2013-10-27 06:22:00,
2013-10-26 23:33:00,47.0,22.0,-100.00,ESE,123,2.0,5.0,37,0.00,,,0.00,0.000000,,2013-10-27 06:33:00,
2013-10-26 23:42:00,47.0,22.0,-100.00,ESE,123,2.0,5.0,37,0.00,,,0.00,0.000000,,2013-10-27 06:42:00,
2013-10-26 23:53:00,47.0,22.0,-100.00,ESE,123,2.0,5.0,37,0.00,,,0.00,0.000000,,2013-10-27 06:53:00,